Weather in Ma'alot-Tarshiha

Israel     33°00′55″N   35°16′36″E
temp.,
°C
wind,
m/s
gust,
m/s
humid.,
%
clouds,
%
prec.,
mm/h
press.,
hPa
HPBL,
m
15 april, thu
thu1500:00+14ne2245100 0.0 101824
03:00+14ne224191 0.0 101713
06:00+14ene223640 0.0 101712
09:00+21ese11330 0.0 1017277
12:00+25w12302 0.0 10171021
15:00+25nnw43390 0.0 1015823
18:00+21n35516 0.0 1015149
21:00+18ne3331100 0.0 101526
16 april, fri
fri1600:00+17nne3336100 0.0 101530
03:00+18ene333492 0.0 101417
06:00+17e2235100 0.0 101511
09:00+24ese23317 0.0 1015331
12:00+27nw2227100 0.0 10151162
15:00+26n563699 0.0 1014535
18:00+22n410425 0.0 1013290
21:00+18nne410415 0.0 1015165
17 april, sat
sat1700:00+18ene33330 0.0 101426
03:00+18ne11360 0.0 101413
06:00+18ene22340 0.0 101411
09:00+25nw0228100 0.0 1015328
12:00+29nw22256 0.0 10141163
15:00+28nnw56314 0.0 1014607
18:00+24nne344281 0.0 1014111
21:00+21nne3328100 0.0 101520
18 april, sun
sun1800:00+20nne333445 0.0 101530
03:00+21e333110 0.0 101516
06:00+21e32335 0.0 101515
09:00+28ese34290 0.0 1016288
12:00+32se342257 0.0 10151198
15:00+31nw432820 0.0 1014735
18:00+28nne33412 0.0 101458
21:00+25ene332912 0.0 101417
19 april, mon
mon1900:00+26e44265 0.0 101325
03:00+25ese7122889 0.0 1013165
06:00+26ese71226100 0.0 1012179
09:00+28ese71229100 0.0 1013330
12:00+33ese7820100 0.0 1012652
15:00+35ssw4617100 0.0 10101970
18:00+30ene1129100 0.0 101011
21:00+27e3319100 0.0 101015